This demonstration page uses our WeatherBlox Daily Observations layout. Learn more.

Left ArrowRight Arrow

44.8408, -93.29828

Hourly Observations for April 11, 2017

Temp ( °F °C ) Dew Point ( °F °C ) Humidity (%) Winds ( mph kmh ) Pressure ( in mb ) Visibility ( mi km ) Precip ( " mm )
12:04 am 00:04 Cloudy with Light Snow 34 1 30 -1 87 87 NNE 5 7 30.15 1021 6 10 0.00 0.00
12:17 am 00:17 Cloudy with Light Snow 33 0.6 31 -0.6 92 92 NNE 3 6 30.15 1021 5 8 0.00 0.03
12:34 am 00:34 Cloudy with Light Snow 34 1 30 -1 87 87 NNE 7 11 30.15 1021 6 10 0.00 0.00
12:42 am 00:42 Cloudy with Light Snow 34 1 30 -1 87 87 NNE 6 9 30.15 1021 6 10 0.00 0.00
12:51 am 00:51 Cloudy with Light Snow 34 1 30 -1 87 87 N 8 13 30.15 1021 4 6 0.00 0.03
12:53 am 00:53 Cloudy with Light Snow 33 0.6 31 -0.6 92 92 N 9 15 30.15 1021 4 6 0.00 0.03
1:53 am 01:53 Cloudy 32 0 29 -1.7 88 88 N 9 15 30.15 1021 9 14 0.00 0.03
2:19 am 02:19 Cloudy 32 0 29 -1.7 88 88 N 7 11 30.18 1022 10 16 0.00 0.00
2:53 am 02:53 Cloudy 32 0 29 -1.7 88 88 N 7 11 30.17 1022 10 16 0.00 0.00
3:53 am 03:53 Cloudy 32 0 29 -1.7 88 88 NNE 7 11 30.18 1022 10 16 0.00 0.00
4:49 am 04:49 Cloudy 32 0 28 -2 87 87 N 9 15 30.18 1022 10 16 0.00 0.00
4:53 am 04:53 Cloudy 32 0 29 -1.7 88 88 N 8 13 30.18 1022 10 16 0.00 0.00
5:53 am 05:53 Cloudy 32 0 28 -2.2 85 85 N 7 11 30.20 1023 10 16 0.00 0.00
6:53 am 06:53 Cloudy 33 0.6 28 -2.2 82 82 N 9 15 30.21 1023 10 16 0.00 0.00
7:05 am 07:05 Cloudy 33 0.6 28 -2.2 82 82 N 7 11 30.21 1023 10 16 0.00 0.00
7:53 am 07:53 Cloudy 33 0.6 28 -2.2 82 82 N 8 13 30.23 1024 10 16 0.00 0.00
8:53 am 08:53 Cloudy 34 1.1 27 -2.8 76 76 N 6 9 30.25 1024 10 16 0.00 0.00
9:15 am 09:15 Cloudy 35 1.7 28 -2.2 76 76 VRB 6 9 30.27 1025 10 16 0.00 0.00
9:53 am 09:53 Cloudy 36 2.2 29 -1.7 76 76 N 6 9 30.27 1025 10 16 0.00 0.00
10:53 am 10:53 Cloudy 37 2.8 30 -1.1 76 76 NW 8 13 30.29 1026 10 16 0.00 0.00
11:53 am 11:53 Mostly Cloudy 41 5 30 -1.1 65 65 NW 9 15 30.29 1026 10 16 0.00 0.00
12:14 pm 12:14 Partly Cloudy 41 5 30 -1 66 66 WNW 6 9 30.30 1026 10 16 0.00 0.00
12:53 pm 12:53 Partly Cloudy 44 6.7 31 -0.6 60 60 VRB 5 7 30.28 1026 10 16 0.00 0.00
1:53 pm 13:53 Mostly Sunny 46 7.8 29 -1.7 51 51 W 8 13 30.27 1025 10 16 0.00 0.00
2:53 pm 14:53 Mostly Sunny 49 9.4 29 -1.7 46 46 W 6 9 30.25 1024 10 16 0.00 0.00
3:53 pm 15:53 Partly Cloudy 52 11.1 29 -1.7 41 41 WNW 12 19 30.23 1024 10 16 0.00 0.00
4:53 pm 16:53 Mostly Sunny 52 11.1 28 -2.2 40 40 NW 9 15 30.22 1023 10 16 0.00 0.00
5:53 pm 17:53 Mostly Sunny 53 11.7 28 -2.2 38 38 WSW 8 13 30.22 1023 10 16 0.00 0.00
6:53 pm 18:53 Mostly Sunny 52 11.1 28 -2.2 40 40 WSW 5 7 30.22 1023 10 16 0.00 0.00
7:53 pm 19:53 Mostly Sunny 50 10 29 -1.7 44 44 W 5 7 30.22 1024 10 16 0.00 0.00
8:53 pm 20:53 Mostly Clear 50 10 30 -1.1 46 46 W 5 7 30.24 1024 10 16 0.00 0.00
9:53 pm 21:53 Clear 49 9.4 30 -1.1 48 48 Calm 30.25 1024 10 16 0.00 0.00
10:53 pm 22:53 Clear 48 8.9 31 -0.6 52 52 SSW 3 6 30.26 1025 10 16 0.00 0.00
11:53 pm 23:53 Clear 44 6.7 33 0.6 65 65 SSE 5 7 30.27 1025 10 16 0.00 0.00

Powered by AerisWeather